timestamp,wind_dir_avg,wind_spd_avg,wind_spd_max_dir,wind_spd_gust,battery_voltage,lat,long
2022-04-27 00:04:00+00:00,84.0,4.89,81.0,6.3,12.65,47.59359,-54.27349
2022-04-27 00:14:01+00:00,88.0,4.33,94.0,6.09,12.33,47.59359,-54.27349
2022-04-27 00:24:01+00:00,84.0,5.22,80.0,6.24,12.33,47.59359,-54.27349
2022-04-27 00:34:01+00:00,62.0,1.74,67.0,2.83,12.33,47.59359,-54.27349
2022-04-27 00:44:01+00:00,85.0,5.26,86.0,6.06,12.33,47.59359,-54.27349
2022-04-27 00:54:01+00:00,76.0,4.74,75.0,5.98,12.33,47.59359,-54.27349
2022-04-27 01:04:01+00:00,71.0,3.62,83.0,5.12,12.33,47.59359,-54.27349
2022-04-27 01:14:01+00:00,85.0,4.21,87.0,5.69,12.41,47.59359,-54.27349
2022-04-27 01:24:01+00:00,92.0,2.69,102.0,5.38,12.41,47.59359,-54.27349
2022-04-27 01:34:01+00:00,81.0,4.59,87.0,6.13,12.41,47.59359,-54.27349
2022-04-27 01:44:01+00:00,41.0,1.59,38.0,1.78,12.41,47.59359,-54.27349
2022-04-27 01:54:01+00:00,60.0,1.28,80.0,3.01,12.41,47.59359,-54.27349
2022-04-27 02:04:01+00:00,79.0,2.17,91.0,4.7,12.41,47.59359,-54.27349
2022-04-27 02:14:01+00:00,85.0,1.86,90.0,4.87,12.33,47.59359,-54.27349
2022-04-27 02:24:01+00:00,41.0,1.03,37.0,1.48,12.33,47.59359,-54.27349
2022-04-27 02:34:01+00:00,29.0,0.85,41.0,1.22,12.33,47.59359,-54.27349
2022-04-27 02:44:01+00:00,100.0,1.08,93.0,1.69,12.33,47.59359,-54.27349
2022-04-27 02:54:01+00:00,1.0,1.33,1.0,1.79,12.33,47.59359,-54.27349
2022-04-27 03:04:01+00:00,63.0,0.59,73.0,0.87,12.33,47.59359,-54.27349
2022-04-27 03:14:00+00:00,10.0,1.03,11.0,1.19,12.25,47.59359,-54.27349
2022-04-27 03:24:00+00:00,0.0,1.25,2.0,1.53,12.25,47.59359,-54.27349
2022-04-27 03:34:00+00:00,4.0,0.73,4.0,0.97,12.25,47.59359,-54.27349
2022-04-27 03:44:00+00:00,12.0,1.07,12.0,1.17,12.25,47.59359,-54.27349
2022-04-27 03:54:00+00:00,11.0,1.28,11.0,1.42,12.25,47.59359,-54.27349
2022-04-27 04:04:00+00:00,12.0,1.59,15.0,1.69,12.25,47.59359,-54.27349
2022-04-27 04:14:00+00:00,12.0,1.05,12.0,1.19,12.33,47.59359,-54.27349
2022-04-27 04:24:00+00:00,11.0,1.4,12.0,1.5,12.33,47.59359,-54.27349
2022-04-27 04:34:00+00:00,45.0,1.15,45.0,1.42,12.33,47.59359,-54.27349
2022-04-27 04:44:00+00:00,27.0,1.16,28.0,1.26,12.33,47.59359,-54.27349
2022-04-27 04:54:00+00:00,26.0,1.88,28.0,1.97,12.33,47.59359,-54.27349
2022-04-27 05:04:00+00:00,10.0,1.74,7.0,1.94,12.33,47.59359,-54.27349
2022-04-27 05:14:01+00:00,22.0,1.56,20.0,1.74,12.17,47.59359,-54.27349
2022-04-27 05:24:01+00:00,21.0,1.48,26.0,1.72,12.17,47.59359,-54.27349
2022-04-27 05:34:01+00:00,22.0,1.83,20.0,1.94,12.17,47.59359,-54.27349
2022-04-27 05:44:01+00:00,9.0,2.16,12.0,2.28,12.17,47.59359,-54.27349
2022-04-27 05:54:01+00:00,19.0,1.73,21.0,1.96,12.17,47.59359,-54.27349
2022-04-27 06:04:01+00:00,36.0,2.07,37.0,2.25,12.17,47.59359,-54.27349
2022-04-27 06:14:01+00:00,57.0,2.01,56.0,2.18,12.17,47.59359,-54.27349
2022-04-27 06:24:01+00:00,52.0,2.29,52.0,2.51,12.17,47.59359,-54.27349
2022-04-27 06:34:01+00:00,89.0,2.57,84.0,2.86,12.17,47.59359,-54.27349
2022-04-27 06:44:01+00:00,92.0,2.65,101.0,2.88,12.17,47.59359,-54.27349
2022-04-27 06:54:01+00:00,88.0,2.25,78.0,2.89,12.17,47.59359,-54.27349
2022-04-27 07:04:01+00:00,92.0,1.89,91.0,2.59,12.17,47.59359,-54.27349
2022-04-27 07:14:01+00:00,89.0,1.6,97.0,1.92,12.17,47.59359,-54.27349
2022-04-27 07:24:01+00:00,20.0,0.72,21.0,0.88,12.17,47.59359,-54.27349
2022-04-27 07:34:01+00:00,357.0,1.25,0.0,1.38,12.17,47.59359,-54.27349
2022-04-27 07:44:01+00:00,352.0,1.47,349.0,1.58,12.17,47.59359,-54.27349
2022-04-27 07:54:01+00:00,348.0,1.93,349.0,2.06,12.17,47.59359,-54.27349
2022-04-27 08:04:01+00:00,348.0,1.87,347.0,2.01,12.17,47.59359,-54.27349
2022-04-27 08:14:01+00:00,6.0,1.86,4.0,1.98,12.17,47.59359,-54.27349
2022-04-27 08:24:01+00:00,28.0,2.06,29.0,2.17,12.17,47.59359,-54.27349
2022-04-27 08:34:01+00:00,42.0,1.89,43.0,2.05,12.17,47.59359,-54.27349
2022-04-27 08:44:01+00:00,30.0,1.93,30.0,2.08,12.17,47.59359,-54.27349
2022-04-27 08:54:01+00:00,34.0,1.91,36.0,2.04,12.17,47.59359,-54.27349
2022-04-27 09:04:01+00:00,29.0,1.94,30.0,2.12,12.17,47.59359,-54.27349
2022-04-27 09:14:00+00:00,12.0,2.28,9.0,2.49,12.17,47.59359,-54.27349
2022-04-27 09:24:00+00:00,5.0,2.31,5.0,2.49,12.17,47.59359,-54.27349
2022-04-27 09:34:00+00:00,6.0,2.0,4.0,2.21,12.17,47.59359,-54.27349
2022-04-27 09:44:00+00:00,7.0,1.52,2.0,1.83,12.17,47.59359,-54.27349
2022-04-27 09:54:00+00:00,39.0,1.37,38.0,1.5,12.17,47.59359,-54.27349
2022-04-27 10:04:00+00:00,58.0,1.27,62.0,1.44,12.17,47.59359,-54.27349
2022-04-27 10:14:01+00:00,80.0,1.05,86.0,1.33,12.49,47.59359,-54.27349
2022-04-27 10:24:01+00:00,63.0,1.22,65.0,1.55,12.49,47.59359,-54.27349
2022-04-27 10:34:01+00:00,71.0,1.03,67.0,1.48,12.49,47.59359,-54.27349
2022-04-27 10:44:01+00:00,108.0,1.22,100.0,1.84,12.49,47.59359,-54.27349
2022-04-27 10:54:01+00:00,90.0,1.18,94.0,1.58,12.49,47.59359,-54.27349
2022-04-27 11:04:01+00:00,112.0,1.04,138.0,1.69,12.49,47.59359,-54.27349
2022-04-27 11:14:01+00:00,128.0,0.51,136.0,0.78,13.44,47.59359,-54.27349
2022-04-27 11:24:01+00:00,129.0,1.17,135.0,1.28,13.44,47.59359,-54.27349
2022-04-27 11:34:01+00:00,162.0,0.49,167.0,0.62,13.44,47.59359,-54.27349
2022-04-27 11:44:01+00:00,252.0,0.29,257.0,0.37,13.44,47.59359,-54.27349
2022-04-27 11:54:01+00:00,303.0,0.62,305.0,0.69,13.44,47.59359,-54.27349
2022-04-27 12:04:01+00:00,282.0,1.13,283.0,1.2,13.44,47.59359,-54.27349
2022-04-27 12:14:00+00:00,281.0,1.33,282.0,1.44,13.68,47.59359,-54.27349
2022-04-27 12:24:00+00:00,279.0,1.58,278.0,1.8,13.68,47.59359,-54.27349
2022-04-27 12:34:00+00:00,262.0,0.72,263.0,0.81,13.68,47.59359,-54.27349
2022-04-27 12:44:00+00:00,284.0,0.85,289.0,0.93,13.68,47.59359,-54.27349
2022-04-27 12:54:00+00:00,280.0,1.06,278.0,1.16,13.68,47.59359,-54.27349
2022-04-27 13:04:00+00:00,278.0,1.15,284.0,1.22,13.68,47.59359,-54.27349
2022-04-27 13:14:01+00:00,256.0,0.29,260.0,0.45,13.68,47.59359,-54.27349
2022-04-27 13:24:01+00:00,232.0,0.36,243.0,0.65,13.68,47.59359,-54.27349
2022-04-27 13:34:01+00:00,150.0,0.82,150.0,0.95,13.68,47.59359,-54.27349
2022-04-27 13:44:01+00:00,150.0,1.02,147.0,1.17,13.68,47.59359,-54.27349
2022-04-27 13:54:01+00:00,148.0,1.3,144.0,1.43,13.68,47.59359,-54.27349
2022-04-27 14:04:01+00:00,165.0,1.5,166.0,1.61,13.68,47.59359,-54.27349
2022-04-27 14:14:01+00:00,159.0,1.3,161.0,1.4,13.6,47.59359,-54.27349
2022-04-27 14:24:01+00:00,155.0,1.4,156.0,1.6,13.6,47.59359,-54.27349
2022-04-27 14:34:01+00:00,161.0,1.98,160.0,2.12,13.6,47.59359,-54.27349
2022-04-27 14:44:01+00:00,180.0,2.05,181.0,2.25,13.6,47.59359,-54.27349
2022-04-27 14:54:01+00:00,193.0,2.57,197.0,2.78,13.6,47.59359,-54.27349
2022-04-27 15:04:01+00:00,201.0,3.04,204.0,3.38,13.6,47.59359,-54.27349
2022-04-27 15:14:00+00:00,204.0,3.31,204.0,3.48,13.68,47.59359,-54.27349
2022-04-27 15:24:00+00:00,203.0,3.48,203.0,4.05,13.68,47.59359,-54.27349
2022-04-27 15:34:00+00:00,210.0,4.26,211.0,4.68,13.68,47.59359,-54.27349
2022-04-27 15:44:00+00:00,221.0,4.3,217.0,4.68,13.68,47.59359,-54.27349
2022-04-27 15:54:00+00:00,218.0,3.89,217.0,4.49,13.68,47.59359,-54.27349
2022-04-27 16:04:00+00:00,206.0,3.02,205.0,3.41,13.68,47.59359,-54.27349
2022-04-27 16:14:00+00:00,219.0,3.85,217.0,4.43,13.84,47.59359,-54.27349
2022-04-27 16:24:00+00:00,193.0,3.9,193.0,4.11,13.84,47.59359,-54.27349
2022-04-27 16:34:00+00:00,203.0,4.33,206.0,4.69,13.84,47.59359,-54.27349
2022-04-27 16:44:00+00:00,203.0,4.56,202.0,4.85,13.84,47.59359,-54.27349
2022-04-27 16:54:00+00:00,203.0,4.72,202.0,5.4,13.84,47.59359,-54.27349
2022-04-27 17:04:00+00:00,201.0,5.35,201.0,5.77,13.84,47.59359,-54.27349
2022-04-27 17:14:00+00:00,196.0,5.43,198.0,5.8,13.84,47.59359,-54.27349
2022-04-27 17:24:00+00:00,189.0,5.46,190.0,5.74,13.84,47.59359,-54.27349
2022-04-27 17:34:00+00:00,191.0,5.0,192.0,5.35,13.84,47.59359,-54.27349
2022-04-27 17:44:00+00:00,197.0,5.31,213.0,6.35,13.84,47.59359,-54.27349
2022-04-27 17:54:00+00:00,202.0,4.72,202.0,4.94,13.84,47.59359,-54.27349
2022-04-27 18:04:00+00:00,209.0,4.68,210.0,4.95,13.84,47.59359,-54.27349
2022-04-27 18:14:01+00:00,210.0,4.7,210.0,5.0,13.92,47.59359,-54.27349
2022-04-27 18:24:01+00:00,219.0,4.47,226.0,5.08,13.92,47.59359,-54.27349
2022-04-27 18:34:01+00:00,218.0,4.52,217.0,4.96,13.92,47.59359,-54.27349
2022-04-27 18:44:01+00:00,225.0,4.4,226.0,5.31,13.92,47.59359,-54.27349
2022-04-27 18:54:01+00:00,228.0,4.69,237.0,5.55,13.92,47.59359,-54.27349
2022-04-27 19:04:01+00:00,247.0,6.77,247.0,7.16,13.92,47.59359,-54.27349
2022-04-27 19:14:00+00:00,239.0,4.83,251.0,6.84,13.68,47.59359,-54.27349
2022-04-27 19:24:00+00:00,233.0,4.46,243.0,6.22,13.68,47.59359,-54.27349
2022-04-27 19:34:00+00:00,248.0,5.9,245.0,6.47,13.68,47.59359,-54.27349
2022-04-27 19:44:00+00:00,226.0,4.32,239.0,5.24,13.68,47.59359,-54.27349
2022-04-27 19:54:00+00:00,221.0,4.58,238.0,6.67,13.68,47.59359,-54.27349
2022-04-27 20:04:00+00:00,214.0,5.25,226.0,6.57,13.68,47.59359,-54.27349
2022-04-27 20:14:01+00:00,212.0,5.8,215.0,6.53,13.76,47.59359,-54.27349
2022-04-27 20:24:01+00:00,222.0,6.75,225.0,8.02,13.76,47.59359,-54.27349
2022-04-27 20:34:01+00:00,218.0,5.72,223.0,6.32,13.76,47.59359,-54.27349
2022-04-27 20:44:01+00:00,222.0,5.53,238.0,6.98,13.76,47.59359,-54.27349
2022-04-27 20:54:01+00:00,236.0,7.28,235.0,7.75,13.76,47.59359,-54.27349
2022-04-27 21:04:01+00:00,234.0,7.56,236.0,8.1,13.76,47.59359,-54.27349
2022-04-27 21:14:01+00:00,231.0,7.06,233.0,7.55,13.53,47.59359,-54.27349
2022-04-27 21:24:01+00:00,225.0,6.25,236.0,7.62,13.53,47.59359,-54.27349
2022-04-27 21:34:01+00:00,231.0,6.1,240.0,7.29,13.53,47.59359,-54.27349
2022-04-27 21:44:01+00:00,233.0,6.86,234.0,7.42,13.53,47.59359,-54.27349
2022-04-27 21:54:01+00:00,225.0,5.85,230.0,6.99,13.53,47.59359,-54.27349
2022-04-27 22:04:01+00:00,223.0,6.19,229.0,6.89,13.53,47.59359,-54.27349
2022-04-27 22:14:00+00:00,222.0,5.64,229.0,6.8,13.29,47.59359,-54.27349
2022-04-27 22:24:00+00:00,231.0,6.82,233.0,7.48,13.29,47.59359,-54.27349
2022-04-27 22:34:00+00:00,239.0,7.03,238.0,7.34,13.29,47.59359,-54.27349
2022-04-27 22:44:00+00:00,242.0,6.62,241.0,6.97,13.29,47.59359,-54.27349
2022-04-27 22:54:00+00:00,240.0,6.84,241.0,7.31,13.29,47.59359,-54.27349
2022-04-27 23:04:00+00:00,233.0,6.07,229.0,6.94,13.29,47.59359,-54.27349
2022-04-27 23:14:00+00:00,226.0,5.3,231.0,6.55,12.73,47.59359,-54.27349
2022-04-27 23:24:00+00:00,185.0,3.77,186.0,4.19,12.73,47.59359,-54.27349
2022-04-27 23:34:00+00:00,172.0,4.21,175.0,4.74,12.73,47.59359,-54.27349
2022-04-27 23:44:00+00:00,185.0,4.04,185.0,4.52,12.73,47.59359,-54.27349
2022-04-27 23:54:00+00:00,183.0,3.93,183.0,4.68,12.73,47.59359,-54.27349
